Tacoma Narrows, WA

11:58 PM PDT on June 27, 2017 (GMT -0700)
Tacoma Narrows

Weather History for KTIW - July, 2013

Change the Weather History Date:

Monday, July 1, 2013

  Actual Average Record
Temperature  
Mean Temperature 74 °F -  
Max Temperature 88 °F 69 °F 91 °F (2014)
Min Temperature 63 °F 51 °F 46 °F (2011)
Cooling Degree Days 10    
Growing Degree Days 24 (Base 50)    
Moisture  
Dew Point 60 °F    
Average Humidity 64    
Maximum Humidity 84    
Minimum Humidity 43    
Precipitation  
Precipitation 0.00 in - - ()
Sea Level Pressure  
Sea Level Pressure 29.96 in    
Wind  
Wind Speed 4 mph (WSW)    
Max Wind Speed 8 mph    
Max Gust Speed -    
Visibility 10 miles    
Events      
Averages and records for this station are not official NWS values.
T = Trace of Precipitation, MM = Missing Value Source: NWS Daily Summary

Daily Weather History Graph

Daily Weather History Graph

Search for Another Location

Airport or City:

Trip Planner

Search our weather history database for the weather conditions in past years. The results will help you decide how hot, cold, wet, or windy it might be!

Date:

Astronomy

Jul. 01, 2013 Rise Set
Actual Time 5:18 AM PDT 9:09 PM PDT
Civil Twilight 4:38 AM PDT 9:49 PM PDT
Nautical Twilight 3:43 AM PDT 10:44 PM PDT
Astronomical Twilight 2:22 AM PDT 12:05 AM PDT
Moon 1:07 AM PDT (7/1) 3:17 PM PDT (7/1)
Length of Visible Light 17h 11m
Length of Day
15h 51m
Waning Crescent, 34% of the Moon is Illuminated
Jul 1
Waning Crescent
Jul 8
New
Jul 15
First Quarter
Jul 22
Full
Jul 29
Last Quarter

Hourly Weather History & Observations

Time (PDT) Temp. Heat Index Dew Point Humidity Pressure Visibility Wind Dir Wind Speed Gust Speed Precip Events Conditions
12:53 AM 73.0 °F - 60.1 °F 64% 29.92 in 10.0 mi Calm Calm - N/A   Clear
1:53 AM 70.0 °F - 61.0 °F 73% 29.92 in 10.0 mi West 3.5 mph - N/A   Clear
2:53 AM 68.0 °F - 59.0 °F 73% 29.92 in 10.0 mi West 4.6 mph - N/A   Clear
3:53 AM 66.0 °F - 59.0 °F 78% 29.93 in 10.0 mi West 4.6 mph - N/A   Clear
4:53 AM 64.0 °F - 59.0 °F 84% 29.94 in 10.0 mi West 5.8 mph - N/A   Clear
5:53 AM 63.0 °F - 57.9 °F 84% 29.96 in 10.0 mi West 6.9 mph - N/A   Clear
6:53 AM 64.0 °F - 59.0 °F 84% 29.97 in 10.0 mi WSW 4.6 mph - N/A   Clear
7:53 AM 66.0 °F - 59.0 °F 78% 29.96 in 10.0 mi Calm Calm - N/A   Clear
8:53 AM 66.9 °F - 60.1 °F 79% 29.96 in 10.0 mi South 4.6 mph - N/A   Clear
9:53 AM 72.0 °F - 60.1 °F 66% 29.94 in 10.0 mi SW 3.5 mph - N/A   Clear
10:53 AM 73.0 °F - 60.1 °F 64% 29.95 in 10.0 mi South 4.6 mph - N/A   Clear
11:53 AM 75.9 °F - 60.1 °F 58% 29.95 in 10.0 mi South 5.8 mph - N/A   Clear
12:53 PM 80.1 °F 80.9 °F 60.1 °F 50% 29.95 in 10.0 mi WNW 5.8 mph - N/A   Clear
1:53 PM 82.0 °F 82.7 °F 61.0 °F 49% 29.94 in 10.0 mi WSW 4.6 mph - N/A   Clear
2:53 PM 84.0 °F 84.4 °F 61.0 °F 46% 29.95 in 10.0 mi Calm Calm - N/A   Clear
3:53 PM 86.0 °F 86.1 °F 61.0 °F 43% 29.95 in 10.0 mi WSW 6.9 mph - N/A   Clear
4:53 PM 86.0 °F 86.1 °F 61.0 °F 43% 29.95 in 10.0 mi Variable 4.6 mph - N/A   Clear
5:53 PM 84.0 °F 85.8 °F 64.9 °F 53% 29.95 in 10.0 mi WSW 5.8 mph - N/A   Clear
6:53 PM 82.9 °F 84.4 °F 64.0 °F 53% 29.95 in 10.0 mi WSW 4.6 mph - N/A   Clear
7:53 PM 80.1 °F 81.5 °F 63.0 °F 56% 29.97 in 10.0 mi Variable 6.9 mph - N/A   Clear
8:53 PM 73.9 °F - 60.1 °F 62% 29.98 in 10.0 mi SW 5.8 mph - N/A   Clear
9:53 PM 71.1 °F - 57.0 °F 61% 29.99 in 10.0 mi WSW 6.9 mph - N/A   Clear
10:53 PM 66.9 °F - 55.9 °F 68% 30.01 in 10.0 mi West 5.8 mph - N/A   Clear
11:53 PM 64.0 °F - 55.9 °F 75% 30.03 in 10.0 mi West 8.1 mph - N/A   Clear